Chicopee, MA

3:08 PM EDT on September 30, 2016 (GMT -0400)
Westover Air Reserve Base / Metropolitan Airport

Weather History for KCEF - February, 2013

Change the Weather History Date:

Thursday, February 21, 2013

  Actual Average Record
Temperature  
Mean Temperature 26 °F -  
Max Temperature 29 °F 36 °F 59 °F (2002)
Min Temperature 23 °F 19 °F -17 °F (2015)
Degree Days  
Heating Degree Days 39    
Moisture  
Dew Point 12 °F    
Average Humidity 57    
Maximum Humidity 71    
Minimum Humidity 48    
Precipitation  
Precipitation 0.00 in - - ()
Sea Level Pressure  
Sea Level Pressure 29.96 in    
Wind  
Wind Speed 18 mph (WNW)    
Max Wind Speed 26 mph    
Max Gust Speed 38 mph    
Visibility 10 miles    
Events Snow    
Averages and records for this station are not official NWS values.
T = Trace of Precipitation, MM = Missing Value Source: NWS Daily Summary

Daily Weather History Graph

Daily Weather History Graph

Search for Another Location

Airport or City:

Trip Planner

Search our weather history database for the weather conditions in past years. The results will help you decide how hot, cold, wet, or windy it might be!

Date:

Astronomy

Feb. 21, 2013 Rise Set
Actual Time 6:37 AM EST 5:30 PM EST
Civil Twilight 6:09 AM EST 5:59 PM EST
Nautical Twilight 5:36 AM EST 6:31 PM EST
Astronomical Twilight 5:04 AM EST 7:04 PM EST
Moon 1:40 PM EST (2/21) 3:43 AM EST (2/21)
Length of Visible Light 11h 50m
Length of Day
10h 53m
Waxing Gibbous, 83% of the Moon is Illuminated
Feb 21
Waxing Gibbous
Feb 25
Full
Mar 4
Last Quarter
Mar 11
New
Mar 19
First Quarter

Hourly Weather History & Observations

Time (EST) Temp. Windchill Dew Point Humidity Pressure Visibility Wind Dir Wind Speed Gust Speed Precip Events Conditions
12:55 AM 25.5 °F 11.6 °F 13.5 °F 60% 29.83 in 10.0 mi WNW 19.6 mph - N/A   Partly Cloudy
1:55 AM 25.5 °F 12.0 °F 13.1 °F 59% 29.84 in 10.0 mi WNW 18.4 mph - N/A   Mostly Cloudy
2:55 AM 25.0 °F 10.9 °F 12.0 °F 58% 29.84 in 10.0 mi West 19.6 mph - N/A   Overcast
4:55 AM 24.3 °F 10.8 °F 11.3 °F 58% 29.86 in 10.0 mi WNW 17.3 mph - N/A   Mostly Cloudy
5:55 AM 24.1 °F 9.4 °F 10.8 °F 57% 29.88 in 10.0 mi NW 20.7 mph 38.0 mph N/A   Mostly Cloudy
6:11 AM 24.8 °F 10.7 °F 10.4 °F 54% 29.88 in 10.0 mi WNW 19.6 mph 28.8 mph N/A Snow Light Snow
6:12 AM 24.8 °F 11.5 °F 10.4 °F 54% 29.88 in 10.0 mi WNW 17.3 mph 28.8 mph N/A   Overcast
6:13 AM 24.8 °F 11.5 °F 10.4 °F 54% 29.88 in 10.0 mi WNW 17.3 mph 28.8 mph N/A Snow Light Snow
6:23 AM 24.8 °F 9.6 °F 10.4 °F 54% 29.88 in 10.0 mi WNW 23.0 mph 28.8 mph N/A   Overcast
6:48 AM 23.0 °F 8.7 °F 12.2 °F 63% 29.88 in 10.0 mi WNW 18.4 mph - N/A Snow Light Snow
6:55 AM 23.7 °F 7.9 °F 11.8 °F 61% 29.87 in 10.0 mi West 24.2 mph 27.6 mph 0.00 in Snow Light Snow
6:58 AM 23.0 °F 8.7 °F 12.2 °F 63% 29.87 in 10.0 mi West 18.4 mph 27.6 mph N/A   Mostly Cloudy
7:55 AM 23.9 °F 10.8 °F 11.8 °F 60% 29.89 in 10.0 mi NW 16.1 mph 25.3 mph 0.00 in   Overcast
8:55 AM 23.9 °F 9.9 °F 10.9 °F 58% 29.88 in 10.0 mi WNW 18.4 mph 24.2 mph N/A   Mostly Cloudy
9:55 AM 24.3 °F 8.0 °F 10.0 °F 55% 29.89 in 10.0 mi WNW 26.5 mph 34.5 mph N/A   Partly Cloudy
10:55 AM 25.3 °F 10.7 °F 11.1 °F 55% 29.90 in 10.0 mi WNW 21.9 mph - N/A   Clear
11:55 AM 26.4 °F 11.8 °F 11.3 °F 53% 29.91 in 10.0 mi WNW 23.0 mph 27.6 mph N/A   Clear
12:55 PM 27.1 °F 14.1 °F 11.8 °F 53% 29.91 in 10.0 mi WNW 18.4 mph 24.2 mph N/A   Clear
1:55 PM 27.5 °F 16.3 °F 11.3 °F 51% 29.92 in 10.0 mi WNW 13.8 mph 25.3 mph N/A   Clear
2:55 PM 29.1 °F 17.9 °F 11.5 °F 48% 29.94 in 10.0 mi NW 15.0 mph - N/A   Clear
3:55 PM 28.9 °F 16.1 °F 11.3 °F 48% 29.96 in 10.0 mi NW 19.6 mph - N/A   Partly Cloudy
4:55 PM 27.9 °F 15.5 °F 11.5 °F 50% 30.01 in 10.0 mi NW 17.3 mph - N/A   Partly Cloudy
5:55 PM 25.0 °F 10.6 °F 10.4 °F 54% 30.06 in 10.0 mi NW 20.7 mph 25.3 mph N/A   Clear
6:55 PM 24.1 °F 11.5 °F 9.9 °F 55% 30.09 in 10.0 mi NNW 15.0 mph - N/A   Clear
7:55 PM 23.5 °F 13.7 °F 10.9 °F 59% 30.12 in 10.0 mi NNW 9.2 mph - N/A   Clear
8:55 PM 26.4 °F 16.6 °F 15.3 °F 63% 30.17 in 10.0 mi NNW 10.4 mph 19.6 mph N/A   Clear
9:55 PM 27.0 °F 19.5 °F 16.2 °F 64% 30.20 in 10.0 mi NNW 6.9 mph - N/A   Clear
10:55 PM 23.2 °F 15.0 °F 15.1 °F 71% 30.24 in 10.0 mi WNW 6.9 mph - N/A   Clear
11:55 PM 24.6 °F 14.4 °F 14.7 °F 66% 30.27 in 10.0 mi NNW 10.4 mph - N/A   Clear